Flag for Spain Weather past 2 weeks in Linares, Spain

Now
63 °F

Scattered clouds.


Feels Like: 63 °F
Forecast: 51 / 77 °F
Wind: 1 mph from North

Location: Granada / Aeropuerto

Current Time: May 5, 2015 at 10:19:09 AM

Latest Report: May 5, 2015 at 10:00 AM


Visibility: N/A

Pressure: 30.01 "Hg

Humidity: 68%

Dew point: 52 °F

Location of LinaresLocation

Historic Weather in Linares — Graph

°F

Linares temperature yesterday

Maximum temperature yesterday: 90 °F (at 5:00 PM)
Minimum temperature yesterday: 59 °F (at 7:00 AM)
Average temperature yesterday: 73 °F

Past Weeks' High & Low Weather Summary

 TemperatureHumidityPressure
High91 °F (May 2, 4:30 PM)100% (Apr 26, 6:30 AM)30.18 "Hg (Apr 26, 6:30 AM)
Low45 °F (Apr 23, 7:00 AM)14% (Apr 23, 3:30 PM)29.80 "Hg (May 4, 4:00 PM)
Average67 °F53%30.04 "Hg
* Reported Apr 20 9:00 AM — May 5 9:00 AM, Linares, Weather by CustomWeather, © 2015

Note: Actual official high and low records may vary slightly from our data, if they occured in-between our weather recording intervals... More about our weather records

Advertising

Linares weather history for previous 24 hours

 ConditionsComfort  
Time TempWeatherWind HumidityBarometerVisibility
9:00 AM
Tue, May 5
59 °FScattered clouds.3 mph82%29.98 "HgN/A
8:30 AM57 °FScattered clouds.1 mph88%29.98 "HgN/A
8:00 AM57 °FPassing clouds.3 mph88%29.98 "HgN/A
7:30 AM57 °FPassing clouds.No wind82%29.95 "HgN/A
7:00 AM59 °FPassing clouds.2 mph77%29.95 "HgN/A
6:30 AM59 °FPassing clouds.3 mph82%29.98 "HgN/A
6:00 AM61 °FPassing clouds.7 mph77%29.98 "HgN/A
11:30 PM
Mon, May 4
68 °FClear.9 mph60%29.98 "Hg10 mi
11:00 PM68 °FPassing clouds.9 mph49%29.95 "HgN/A
10:30 PM70 °FClear.13 mph35%29.95 "Hg10 mi
10:00 PM72 °FSunny.14 mph31%29.92 "Hg10 mi
9:30 PM72 °FSunny.9 mph31%29.89 "Hg10 mi
9:00 PM73 °FSunny.10 mph29%29.89 "Hg10 mi
8:30 PM75 °FSunny.10 mph29%29.89 "Hg10 mi
8:00 PM75 °FSunny.13 mph29%29.86 "Hg10 mi
7:30 PM77 °FSunny.14 mph26%29.86 "Hg10 mi
7:00 PM81 °FPassing clouds.15 mph23%29.86 "HgN/A
6:30 PM82 °FPassing clouds.15 mph23%29.83 "HgN/A
6:00 PM84 °FSunny.16 mph16%29.83 "Hg10 mi
5:30 PM86 °FPassing clouds.18 mph14%29.83 "HgN/A
5:00 PM90 °FSunny.15 mph17%29.80 "Hg10 mi
4:30 PM86 °FPassing clouds.15 mph20%29.83 "HgN/A
4:00 PM88 °FPassing clouds.12 mph19%29.80 "HgN/A
3:30 PM88 °FPassing clouds.9 mph19%29.83 "HgN/A
3:00 PM86 °FPassing clouds.13 mph20%29.83 "HgN/A
2:30 PM84 °FPassing clouds.8 mph29%29.83 "HgN/A
2:00 PM82 °FPassing clouds.5 mph32%29.83 "HgN/A
1:30 PM79 °FSunny.2 mph37%29.86 "Hg10 mi
1:00 PM77 °FSunny.1 mph36%29.86 "Hg10 mi
12:30 PM73 °FSunny.2 mph44%29.86 "Hg10 mi
12:00 PM72 °FSunny.2 mph50%29.86 "Hg10 mi
11:30 AM72 °FSunny.2 mph50%29.86 "Hg10 mi
11:00 AM68 °FSunny.No wind56%29.86 "Hg10 mi
10:30 AM66 °FSunny.1 mph60%29.89 "Hg10 mi
10:00 AM66 °FSunny.2 mph60%29.86 "Hg10 mi
Weather by CustomWeather, © 2015

See weather overviewHow to use our weather pages